Zurück zum Katalog

COSMOS 2386

AktivNavigationPO
NORAD 27057·PAYLOAD·🇷🇺 Russia

Gestartet Dec 28, 2001 von Plesetsk Cosmodrome

Loading…

Nächste Überflüge (nächste 24 Stunden)

TLE

AktuellSource: Space-Track

Epoche: Sep 14, 2026, 03:32 UTC

1 27057U 01058C   26257.14761293  .00000034  00000-0  13513-3 0  9993
2 27057  82.5476 157.2389 0000841  75.1322 284.9862 12.61617464137720

Verfolge COSMOS 2386 in Echtzeit mit AllMySat

Download on the App Store